User: anonymous
Location: Trois-Rivi�res
(46.3500°N, 72.5500°W)
Time: 14:55:50
(UTC-04:00)
Language:

SJ-11-01 - Orbit

View from above orbital plane
View from above orbital plane
View from above satellite
View from above satellite

Ground track
Ground track

The orbit data is extracted from the following two-line orbital elements,

1 36088U 09061A   14235.47600791  .00000170  00000-0  44622-4 0  3185
2 36088 098.0302 281.7313 0009788 226.0108 134.0288 14.60104901254558
Epoch (UTC): 23 August 2014 11:25:27
Eccentricity: 0.0009788
inclination: 98.0302°
perigee height: 686 km
apogee height: 700 km
right ascension of ascending node: 281.7313°
argument of perigee: 226.0108°
revolutions per day: 14.60104901
mean anomaly at epoch: 134.0288°
orbit number at epoch: 25455

The dashed part of the orbit path shows where the satellite is in the earth's shadow,  

DLR